Flag for U.S.A. Weather past 2 weeks in Germantown, Maryland, U.S.A.

Now
25 °F

Broken clouds.


Feels Like: 16 °F
Forecast: 19 / 29 °F
Wind: 8 mph from Northeast

Location: Frederick Municipal Airport

Current Time: Feb 27, 2015 at 9:16:34 AM

Latest Report: Feb 27, 2015 at 8:55 AM


Visibility: 10 mi

Pressure: 30.43 "Hg

Humidity: 63%

Dew point: 14 °F

Location of GermantownLocation

Historic Weather in Germantown — Graph

°F

Germantown temperature yesterday

Maximum temperature yesterday: 36 °F (at 2:52 PM)
Minimum temperature yesterday: 28 °F (at 7:50 AM)
Average temperature yesterday: 31 °F

Past Weeks' High & Low Weather Summary

 TemperatureHumidityPressure
High46 °F (Feb 16, 4:47 PM)100% (Feb 22, 1:50 PM)30.50 "Hg (Feb 22, 1:50 PM)
Low0 °F (Feb 24, 5:25 AM)14% (Feb 16, 4:47 PM)29.50 "Hg (Feb 14, 4:52 PM)
Average21 °F52%30.13 "Hg
* Reported Feb 12 7:55 AM — Feb 27 7:47 AM, Germantown, Weather by CustomWeather, © 2015

Note: Actual official high and low records may vary slightly from our data, if they occured in-between our weather recording intervals... More about our weather records

Advertising

Germantown weather history for previous 24 hours

 ConditionsComfort  
Time TempWeatherWind HumidityBarometerVisibility
7:47 AM
Fri, Feb 27
27 °FBroken clouds.10 mph50%30.40 "Hg10 mi
6:49 AM27 °FPartly sunny.9 mph46%30.35 "Hg10 mi
5:25 AM28 °FPassing clouds.6 mph64%30.29 "Hg10 mi
5:05 AM27 °FPassing clouds.6 mph69%30.28 "Hg10 mi
4:45 AM27 °FPartly cloudy.5 mph69%30.28 "Hg10 mi
4:25 AM27 °FMostly cloudy.3 mph74%30.26 "Hg10 mi
4:05 AM27 °FMostly cloudy.No wind74%30.25 "Hg10 mi
3:45 AM28 °FMostly cloudy.No wind69%30.24 "Hg10 mi
3:25 AM28 °FOvercast.No wind69%30.24 "Hg10 mi
3:05 AM28 °FMostly cloudy.No wind69%30.23 "Hg10 mi
2:45 AM28 °FMostly cloudy.No wind69%30.22 "Hg10 mi
2:25 AM28 °FMostly cloudy.No wind69%30.22 "Hg10 mi
2:05 AM28 °FOvercast.No wind69%30.22 "Hg10 mi
1:45 AM28 °FMostly cloudy.No wind69%30.21 "Hg10 mi
1:25 AM28 °FOvercast.No wind69%30.21 "Hg10 mi
11:45 PM
Thu, Feb 26
30 °FOvercast.3 mph64%30.17 "Hg10 mi
11:25 PM30 °FOvercast.5 mph64%30.17 "Hg10 mi
10:25 PM32 °FOvercast.No wind60%30.15 "Hg10 mi
9:45 PM30 °FOvercast.No wind64%30.14 "Hg10 mi
9:25 PM30 °FOvercast.3 mph64%30.14 "Hg10 mi
9:05 PM30 °FOvercast.No wind69%30.13 "Hg10 mi
8:45 PM30 °FPassing clouds.No wind64%30.12 "Hg10 mi
8:25 PM30 °FPassing clouds.5 mph64%30.12 "Hg10 mi
8:05 PM30 °FPassing clouds.No wind69%30.11 "Hg10 mi
7:45 PM32 °FOvercast.No wind55%30.10 "Hg10 mi
6:50 PM30 °FClear.No wind59%30.09 "Hg10 mi
5:45 PM34 °FPartly sunny.No wind51%30.04 "Hg10 mi
4:50 PM36 °FOvercast.No wind44%30.02 "Hg10 mi
3:50 PM36 °FMore clouds than sun.No wind44%30.00 "Hg10 mi
2:52 PM36 °FOvercast.5 mph41%29.98 "Hg10 mi
1:45 PM34 °FScattered clouds.7 mph44%29.96 "Hg10 mi
12:50 PM32 °FScattered clouds.7 mph47%29.95 "Hg10 mi
11:50 AM30 °FOvercast.12 mph55%29.96 "Hg10 mi
10:45 AMN/AOvercast.14 mphN/A29.98 "Hg10 mi
Weather by CustomWeather, © 2015

See weather overviewHow to use our weather pages